Zurück zum Katalog

ONEWEB-0338

AktivKommunikationPO
NORAD 49204·PAYLOAD·🇬🇧 United Kingdom

Gestartet Sep 14, 2021 von Baikonur Cosmodrome

Loading…

Nächste Überflüge (nächste 24 Stunden)

TLE

AktuellSource: CelesTrak SupGP

Epoche: Sep 14, 2026, 21:31 UTC

1 49204C 21083U   26257.89702963  .00002048  00000+0  50424-2 0  2576
2 49204  87.9145 256.5508 0002063  79.7488 320.1989 13.20770295    19

Verfolge ONEWEB-0338 in Echtzeit mit AllMySat

Download on the App Store